| time (UTC) | temp F | wind direction | speed MPH | gust MPH | rain 1hr in | rain 24hr in | rain mn in | humidity % | barometer mb |
| 20260505063054 | 60 | 147 | 1.0 | 2.0 | 0.00 | 0.00 | 0.00 | 73 | 1010.8 |
| 20260505062601 | 60 | 147 | 1.0 | 3.0 | 0.00 | 0.00 | 0.00 | 73 | 1010.8 |
| 20260505061053 | 60 | 149 | 1.0 | 4.0 | 0.00 | 0.00 | 0.00 | 73 | 1010.8 |
| 20260505060555 | 60 | 149 | 1.0 | 4.0 | 0.00 | 0.00 | 0.00 | 71 | 1010.9 |
| 20260505060054 | 60 | 203 | 0.0 | 2.0 | 0.00 | 0.00 | 0.00 | 72 | 1011.0 |
| 20260505055550 | 60 | 215 | 0.0 | 3.0 | 0.00 | 0.00 | 0.00 | 71 | 1011.0 |
| 20260505055048 | 60 | 204 | 1.0 | 5.0 | 0.00 | 0.00 | 0.00 | 71 | 1010.9 |
| 20260505054548 | 60 | 183 | 1.0 | 5.0 | 0.00 | 0.00 | 0.00 | 71 | 1010.9 |
| 20260505054048 | 60 | 187 | 1.0 | 3.0 | 0.00 | 0.00 | 0.00 | 71 | 1010.9 |
| 20260505053545 | 60 | 180 | 1.0 | 4.0 | 0.00 | 0.00 | 0.00 | 70 | 1010.8 |
| 20260505053046 | 60 | 150 | 1.0 | 4.0 | 0.00 | 0.00 | 0.00 | 71 | 1010.9 |
| 20260505052546 | 60 | 178 | 1.0 | 4.0 | 0.00 | 0.00 | 0.00 | 70 | 1010.8 |
| 20260505052046 | 60 | 190 | 1.0 | 4.0 | 0.00 | 0.00 | 0.00 | 70 | 1010.7 |
| 20260505051049 | 59 | 174 | 2.0 | 5.0 | 0.00 | 0.00 | 0.00 | 69 | 1010.7 |
| 20260505050549 | 59 | 61 | 1.0 | 5.0 | 0.00 | 0.00 | 0.00 | 69 | 1010.8 |
| 20260505041540 | 60 | 204 | 2.0 | 5.0 | 0.00 | 0.00 | 0.00 | 67 | 1010.6 |
| 20260505041038 | 60 | 188 | 2.0 | 5.0 | 0.00 | 0.00 | 0.00 | 67 | 1010.4 |
| 20260505040536 | 60 | 225 | 2.0 | 7.0 | 0.00 | 0.00 | 0.00 | 67 | 1010.5 |
| 20260505040038 | 60 | 160 | 2.0 | 7.0 | 0.00 | 0.00 | 0.00 | 67 | 1010.5 |
| 20260505035025 | 60 | 160 | 2.0 | 4.0 | 0.00 | 0.00 | 0.00 | 67 | 1010.5 |
| 20260505034522 | 60 | 194 | 1.0 | 4.0 | 0.00 | 0.00 | 0.00 | 67 | 1010.4 |
| 20260505033023 | 59 | 208 | 1.0 | 5.0 | 0.00 | 0.00 | 0.00 | 67 | 1010.4 |
| 20260505032518 | 59 | 195 | 1.0 | 5.0 | 0.00 | 0.00 | 0.00 | 67 | 1010.3 |
| 20260505032016 | 59 | 167 | 1.0 | 3.0 | 0.00 | 0.00 | 0.00 | 67 | 1010.3 |
| 20260505031516 | 59 | 166 | 1.0 | 4.0 | 0.00 | 0.00 | 0.00 | 66 | 1010.3 |
| 20260505031015 | 59 | 176 | 1.0 | 4.0 | 0.00 | 0.00 | 0.00 | 66 | 1010.4 |
| 20260505030015 | 60 | 183 | 1.0 | 4.0 | 0.00 | 0.00 | 0.00 | 66 | 1010.4 |
| 20260505025514 | 60 | 202 | 2.0 | 6.0 | 0.00 | 0.00 | 0.00 | 66 | 1010.4 |
| 20260505025010 | 60 | 218 | 1.0 | 6.0 | 0.00 | 0.00 | 0.00 | 66 | 1010.6 |
| 20260505024009 | 60 | 202 | 1.0 | 4.0 | 0.00 | 0.00 | 0.00 | 66 | 1010.6 |
| 20260505023509 | 60 | 215 | 1.0 | 4.0 | 0.00 | 0.00 | 0.00 | 66 | 1010.6 |
| 20260505023009 | 60 | 218 | 1.0 | 6.0 | 0.00 | 0.00 | 0.00 | 66 | 1010.5 |
| 20260505022508 | 59 | 200 | 1.0 | 6.0 | 0.00 | 0.00 | 0.00 | 66 | 1010.5 |
| 20260505022009 | 59 | 121 | 1.0 | 3.0 | 0.00 | 0.00 | 0.00 | 66 | 1010.4 |
| 20260505021510 | 59 | 111 | 1.0 | 3.0 | 0.00 | 0.00 | 0.00 | 66 | 1010.5 |
| 20260505021008 | 59 | 111 | 1.0 | 3.0 | 0.00 | 0.00 | 0.00 | 66 | 1010.5 |
| 20260505020517 | 59 | 111 | 1.0 | 3.0 | 0.00 | 0.00 | 0.00 | 67 | 1010.4 |
| 20260505020005 | 60 | 69 | 1.0 | 3.0 | 0.00 | 0.00 | 0.00 | 66 | 1010.5 |
| 20260505015506 | 60 | 345 | 1.0 | 3.0 | 0.00 | 0.00 | 0.00 | 66 | 1010.4 |
| 20260505015005 | 60 | 90 | 1.0 | 2.0 | 0.00 | 0.00 | 0.00 | 65 | 1010.5 |
| 20260505014504 | 60 | 81 | 1.0 | 2.0 | 0.00 | 0.00 | 0.00 | 64 | 1010.6 |
| 20260505014000 | 60 | 81 | 1.0 | 2.0 | 0.00 | 0.00 | 0.00 | 64 | 1010.5 |
| 20260505013459 | 61 | 75 | 1.0 | 2.0 | 0.00 | 0.00 | 0.00 | 63 | 1010.5 |
| 20260505013001 | 61 | 68 | 1.0 | 3.0 | 0.00 | 0.00 | 0.00 | 63 | 1010.5 |
| 20260505012502 | 61 | 138 | 1.0 | 5.0 | 0.00 | 0.00 | 0.00 | 62 | 1010.4 |
| 20260505012003 | 62 | 138 | 2.0 | 5.0 | 0.00 | 0.00 | 0.00 | 62 | 1010.4 |
| 20260505011459 | 62 | 133 | 2.0 | 5.0 | 0.00 | 0.00 | 0.00 | 62 | 1010.3 |
| 20260505010450 | 62 | 345 | 2.0 | 8.0 | 0.00 | 0.00 | 0.00 | 61 | 1010.1 |
| 20260505005948 | 63 | 345 | 3.0 | 9.0 | 0.00 | 0.00 | 0.00 | 60 | 1010.0 |
| 20260505005448 | 63 | 345 | 2.0 | 9.0 | 0.00 | 0.00 | 0.00 | 59 | 1009.9 |
| 20260505004950 | 63 | 345 | 2.0 | 5.0 | 0.00 | 0.00 | 0.00 | 59 | 1009.9 |
| 20260505003948 | 63 | 345 | 3.0 | 11.0 | 0.00 | 0.00 | 0.00 | 59 | 1009.9 |
| 20260505002950 | 64 | 345 | 4.0 | 7.0 | 0.00 | 0.00 | 0.00 | 59 | 1009.9 |
| 20260505002452 | 64 | 152 | 3.0 | 7.0 | 0.00 | 0.00 | 0.00 | 58 | 1009.9 |
| 20260505001947 | 64 | 129 | 4.0 | 7.0 | 0.00 | 0.00 | 0.00 | 58 | 1009.9 |
| 20260505001446 | 64 | 56 | 4.0 | 7.0 | 0.00 | 0.00 | 0.00 | 57 | 1009.9 |
| 20260505000948 | 65 | 148 | 4.0 | 14.0 | 0.00 | 0.00 | 0.00 | 56 | 1009.9 |
| 20260505000447 | 65 | 121 | 4.0 | 14.0 | 0.00 | 0.00 | 0.00 | 56 | 1009.9 |
| 20260504235947 | 65 | 125 | 4.0 | 9.0 | 0.00 | 0.00 | 0.00 | 56 | 1009.9 |
| 20260504235441 | 66 | 140 | 5.0 | 10.0 | 0.00 | 0.00 | 0.00 | 55 | 1009.9 |
| 20260504234938 | 66 | 147 | 5.0 | 10.0 | 0.00 | 0.00 | 0.00 | 54 | 1009.8 |
| 20260504234439 | 67 | 129 | 5.0 | 9.0 | 0.00 | 0.00 | 0.00 | 53 | 1009.8 |
| 20260504233937 | 67 | 118 | 5.0 | 10.0 | 0.00 | 0.00 | 0.00 | 52 | 1009.8 |
| 20260504233438 | 68 | 204 | 4.0 | 10.0 | 0.00 | 0.00 | 0.00 | 51 | 1009.9 |
| 20260504232436 | 69 | 128 | 3.0 | 9.0 | 0.00 | 0.00 | 0.00 | 48 | 1009.7 |
| 20260504231936 | 69 | 150 | 3.0 | 12.0 | 0.00 | 0.00 | 0.00 | 48 | 1009.7 |
| 20260504231436 | 69 | 175 | 4.0 | 12.0 | 0.00 | 0.00 | 0.00 | 48 | 1009.8 |
| 20260504230938 | 69 | 145 | 3.0 | 9.0 | 0.00 | 0.00 | 0.00 | 47 | 1009.7 |
| 20260504230436 | 69 | 269 | 2.0 | 9.0 | 0.00 | 0.00 | 0.00 | 48 | 1009.8 |
| 20260504225936 | 70 | 129 | 3.0 | 10.0 | 0.00 | 0.00 | 0.00 | 47 | 1009.8 |
| 20260504225438 | 70 | 131 | 3.0 | 10.0 | 0.00 | 0.00 | 0.00 | 48 | 1009.8 |
| 20260504224437 | 70 | 196 | 3.0 | 8.0 | 0.00 | 0.00 | 0.00 | 47 | 1009.8 |
| 20260504223933 | 70 | 151 | 3.0 | 8.0 | 0.00 | 0.00 | 0.00 | 48 | 1009.8 |
| 20260504223431 | 71 | 129 | 3.0 | 8.0 | 0.00 | 0.00 | 0.00 | 47 | 1009.9 |
| 20260504222930 | 71 | 166 | 3.0 | 11.0 | 0.00 | 0.00 | 0.00 | 46 | 1009.9 |
| 20260504221430 | 71 | 225 | 4.0 | 11.0 | 0.00 | 0.00 | 0.00 | 46 | 1009.8 |
| 20260504220933 | 71 | 345 | 4.0 | 12.0 | 0.00 | 0.00 | 0.00 | 46 | 1009.8 |
| 20260504220434 | 71 | 345 | 3.0 | 12.0 | 0.00 | 0.00 | 0.00 | 47 | 1009.8 |
| 20260504215937 | 71 | 345 | 3.0 | 7.0 | 0.00 | 0.00 | 0.00 | 46 | 1009.7 |
| 20260504215434 | 72 | 345 | 4.0 | 10.0 | 0.00 | 0.00 | 0.00 | 46 | 1009.8 |
| 20260504214430 | 72 | 345 | 4.0 | 15.0 | 0.00 | 0.00 | 0.00 | 44 | 1009.9 |
| 20260504213940 | 72 | 345 | 4.0 | 11.0 | 0.00 | 0.00 | 0.00 | 46 | 1009.9 |
| 20260504213430 | 72 | 345 | 4.0 | 13.0 | 0.00 | 0.00 | 0.00 | 46 | 1009.9 |
| 20260504212931 | 72 | 345 | 4.0 | 13.0 | 0.00 | 0.00 | 0.00 | 46 | 1009.9 |
| 20260504212425 | 72 | 345 | 4.0 | 11.0 | 0.00 | 0.00 | 0.00 | 46 | 1009.9 |
| 20260504211924 | 72 | 345 | 4.0 | 11.0 | 0.00 | 0.00 | 0.00 | 44 | 1009.9 |
| 20260504211422 | 73 | 345 | 3.0 | 11.0 | 0.00 | 0.00 | 0.00 | 46 | 1009.9 |
| 20260504210940 | 73 | 345 | 4.0 | 11.0 | 0.00 | 0.00 | 0.00 | 46 | 1009.9 |
| 20260504210422 | 73 | 345 | 4.0 | 11.0 | 0.00 | 0.00 | 0.00 | 47 | 1009.8 |
| 20260504205922 | 72 | 345 | 4.0 | 11.0 | 0.00 | 0.00 | 0.00 | 49 | 1009.8 |
| 20260504205422 | 72 | 318 | 4.0 | 11.0 | 0.00 | 0.00 | 0.00 | 46 | 1009.8 |
| 20260504204922 | 72 | 345 | 4.0 | 11.0 | 0.00 | 0.00 | 0.00 | 45 | 1009.9 |
| 20260504204422 | 72 | 345 | 5.0 | 18.0 | 0.00 | 0.00 | 0.00 | 44 | 1010.0 |
| 20260504203920 | 72 | 345 | 5.0 | 18.0 | 0.00 | 0.00 | 0.00 | 45 | 1010.0 |
| 20260504203421 | 72 | 345 | 3.0 | 13.0 | 0.00 | 0.00 | 0.00 | 47 | 1010.0 |
| 20260504202921 | 72 | 345 | 3.0 | 11.0 | 0.00 | 0.00 | 0.00 | 46 | 1010.2 |
| 20260504202420 | 72 | 345 | 4.0 | 11.0 | 0.00 | 0.00 | 0.00 | 46 | 1010.1 |
| 20260504201919 | 72 | 345 | 3.0 | 10.0 | 0.00 | 0.00 | 0.00 | 47 | 1010.3 |
| 20260504201419 | 72 | 345 | 3.0 | 10.0 | 0.00 | 0.00 | 0.00 | 48 | 1010.3 |
| 20260504200917 | 72 | 243 | 4.0 | 12.0 | 0.00 | 0.00 | 0.00 | 47 | 1010.4 |
| 20260504200411 | 72 | 345 | 4.0 | 12.0 | 0.00 | 0.00 | 0.00 | 45 | 1010.4 |
| 20260504195905 | 72 | 345 | 3.0 | 8.0 | 0.00 | 0.00 | 0.00 | 46 | 1010.4 |
| 20260504195355 | 71 | 345 | 3.0 | 10.0 | 0.00 | 0.00 | 0.00 | 49 | 1010.6 |
| 20260504194849 | 71 | 183 | 5.0 | 13.0 | 0.00 | 0.00 | 0.00 | 46 | 1010.6 |
| 20260504194349 | 71 | 195 | 5.0 | 13.0 | 0.00 | 0.00 | 0.00 | 44 | 1010.7 |
| 20260504193847 | 71 | 279 | 4.0 | 10.0 | 0.00 | 0.00 | 0.00 | 46 | 1010.8 |
| 20260504193346 | 71 | 238 | 4.0 | 10.0 | 0.00 | 0.00 | 0.00 | 46 | 1010.8 |
| 20260504192844 | 71 | 190 | 4.0 | 10.0 | 0.00 | 0.00 | 0.00 | 45 | 1011.1 |
| 20260504192346 | 71 | 202 | 5.0 | 16.0 | 0.00 | 0.00 | 0.00 | 48 | 1011.2 |
| 20260504191846 | 71 | 163 | 5.0 | 16.0 | 0.00 | 0.00 | 0.00 | 46 | 1011.1 |
| 20260504191344 | 71 | 233 | 4.0 | 14.0 | 0.00 | 0.00 | 0.00 | 47 | 1011.3 |
| 20260504190347 | 71 | 327 | 4.0 | 10.0 | 0.00 | 0.00 | 0.00 | 47 | 1011.5 |
| 20260504185844 | 71 | 259 | 3.0 | 9.0 | 0.00 | 0.00 | 0.00 | 50 | 1011.5 |
| 20260504185347 | 71 | 333 | 3.0 | 10.0 | 0.00 | 0.00 | 0.00 | 48 | 1011.6 |
| 20260504184849 | 70 | 181 | 5.0 | 14.0 | 0.00 | 0.00 | 0.00 | 45 | 1011.7 |
| 20260504184347 | 70 | 175 | 5.0 | 14.0 | 0.00 | 0.00 | 0.00 | 47 | 1011.7 |
| 20260504183848 | 70 | 345 | 6.0 | 13.0 | 0.00 | 0.00 | 0.00 | 45 | 1011.8 |
| 20260504183340 | 70 | 345 | 5.0 | 13.0 | 0.00 | 0.00 | 0.00 | 46 | 1011.8 |
| 20260504181830 | 70 | 222 | 5.0 | 14.0 | 0.00 | 0.00 | 0.00 | 49 | 1012.0 |
| 20260504181331 | 70 | 131 | 6.0 | 14.0 | 0.00 | 0.00 | 0.00 | 51 | 1012.0 |
| 20260504180831 | 70 | 262 | 5.0 | 12.0 | 0.00 | 0.00 | 0.00 | 47 | 1012.0 |
| 20260504180333 | 70 | 345 | 5.0 | 12.0 | 0.00 | 0.00 | 0.00 | 44 | 1012.0 |
| 20260504175839 | 69 | 345 | 5.0 | 19.0 | 0.00 | 0.00 | 0.00 | 46 | 1012.2 |
| 20260504175338 | 70 | 188 | 5.0 | 19.0 | 0.00 | 0.00 | 0.00 | 46 | 1012.0 |
| 20260504174836 | 69 | 345 | 4.0 | 14.0 | 0.00 | 0.00 | 0.00 | 46 | 1012.0 |
| 20260504174338 | 70 | 114 | 4.0 | 14.0 | 0.00 | 0.00 | 0.00 | 46 | 1012.2 |
| 20260504173330 | 70 | 258 | 4.0 | 11.0 | 0.00 | 0.00 | 0.00 | 45 | 1012.4 |
| 20260504172331 | 69 | 181 | 4.0 | 10.0 | 0.00 | 0.00 | 0.00 | 45 | 1012.4 |
| 20260504171329 | 69 | 230 | 4.0 | 10.0 | 0.00 | 0.00 | 0.00 | 50 | 1012.7 |
| 20260504170830 | 69 | 345 | 5.0 | 14.0 | 0.00 | 0.00 | 0.00 | 49 | 1012.7 |
| 20260504160321 | 67 | 301 | 3.0 | 11.0 | 0.00 | 0.00 | 0.00 | 47 | 1013.5 |
| 20260504150819 | 65 | 158 | 3.0 | 9.0 | 0.00 | 0.00 | 0.00 | 47 | 1014.0 |
| 20260504150319 | 65 | 96 | 3.0 | 8.0 | 0.00 | 0.00 | 0.00 | 49 | 1014.0 |
| 20260504141314 | 62 | 262 | 3.0 | 9.0 | 0.00 | 0.00 | 0.00 | 55 | 1014.4 |
| 20260504140813 | 62 | 215 | 3.0 | 9.0 | 0.00 | 0.00 | 0.00 | 52 | 1014.3 |
| 20260504140314 | 62 | 203 | 3.0 | 9.0 | 0.00 | 0.00 | 0.00 | 53 | 1014.3 |
| 20260504130812 | 54 | 345 | 3.0 | 9.0 | 0.00 | 0.00 | 0.00 | 65 | 1014.6 |
| 20260504120314 | 48 | 133 | 2.0 | 4.0 | 0.00 | 0.00 | 0.00 | 72 | 1014.9 |
| 20260504100505 | 46 | 106 | 0.0 | 2.0 | 0.00 | 0.00 | 0.00 | 66 | 1015.0 |
| 20260504081928 | 46 | 252 | 1.0 | 6.0 | 0.00 | 0.00 | 0.00 | 61 | 1015.3 |
| 20260504081428 | 46 | 269 | 2.0 | 6.0 | 0.00 | 0.00 | 0.00 | 62 | 1015.2 |
| 20260504080927 | 46 | 246 | 2.0 | 6.0 | 0.00 | 0.00 | 0.00 | 62 | 1015.3 |
| 20260504080423 | 46 | 264 | 2.0 | 7.0 | 0.00 | 0.00 | 0.00 | 63 | 1015.2 |